Wind_Speed
17 15 13 11 9 9 8 8 8 12 16 14 12 12 11 11 10 11 13 6 9 9 12 8 9 10 9 10 10 10 10 11 15 16 15 17 22 15 17 15 17 17 15
16 15 14 13 11 10 10 9 8 9 13 13 13 13 13 12 11 11 10 10 11 10 10 11 11 11 12 11 10 12 12 14 14 19 17 15 15 15 18 15 16 13 16
16 16 16 15 12 12 12 13 9 8 9 13 13 15 14 12 13 13 12 10 11 11 11 11 11 10 12 10 12 10 10 11 10 13 15 13 14 16 14 15 15 18 16
19 15 18 16 16 13 13 14 13 13 10 10 9 9 9 10 11 12 12 13 12 12 11 11 12 11 11 12 9 11 11 10 10 12 13 14 14 15 13 14 17 16 15
18 18 15 15 14 16 17 16 15 15 13 13 12 12 11 11 12 15 10 10 12 11 12 12 11 12 15 15 12 10 13 11 12 14 15 15 15 15 16 16 18 18 19
16 13 12 13 12 11 13 18 18 17 15 12 14 13 12 16 16 16 13 12 12 12 11 12 12 15 19 15 16 17 17 19 19 16 16 18 22 18 17 19 18 20 21
25 20 20 15 14 12 13 17 17 17 17 16 15 15 18 23 21 19 19 19 14 15 14 15 13 11 14 14 15 17 17 16 18 19 21 23 25 23 21 24 19 21 22
15 15 12 10 12 14 16 15 15 15 15 14 12 11 18 18 18 20 20 19 19 15 15 14 15 16 21 19 20 18 15 15 18 21 22 23 21 23 23 24 28 31 26
19 14 12 11 13 12 11 17 16 12 13 16 16 17 12 12 12 14 11 11 16 18 18 14 16 19 20 20 20 19 16 15 13 19 21 25 28 29 28 27 26 21 25
16 11 9 10 11 13 12 9 11 13 13 16 16 13 12 10 10 8 9 5 3 5 9 13 13 14 15 14 12 11 12 12 16 17 16 18 19 19 20 18 22 23 23
20 19 13 9 11 9 9 11 11 13 14 10 11 10 6 5 6 8 10 9 7 3 1 2 10 9 10 10 11 11 12 14 14 14 14 14 14 13 15 16 16 19 22
20 15 13 12 7 9 10 11 9 9 8 7 6 4 3 4 4 5 6 6 6 2 4 4 7 6 8 9 11 12 13 14 13 12 13 13 13 12 12 15 16 17 19
9 9 12 12 9 8 10 9 6 9 6 5 4 4 3 3 7 7 5 5 5 6 8 8 9 11 12 10 13 14 15 10 11 12 13 13 13 15 17 16 14 16 16
7 8 9 7 8 6 5 5 6 5 7 7 7 7 7 8 8 7 8 9 9 11 15 13 13 12 11 11 10 9 10 11 11 12 13 13 14 15 16 16 18 18 20
6 6 5 5 7 10 14 14 14 17 16 11 11 7 9 7 8 10 11 12 12 12 10 5 3 3 5 6 6 6 5 8 9 12 13 15 15 16 16 16 17 19 20
4 4 5 5 5 5 8 15 14 9 14 16 15 14 12 12 11 10 8 7 5 4 4 4 1 2 4 7 6 7 6 6 8 11 13 14 15 15 17 19 18 18 20
3 5 4 6 6 8 7 4 5 9 9 10 10 11 10 8 6 5 3 3 4 7 4 3 4 6 6 10 9 9 10 13 14 14 15 14 14 15 18 18 18 20 22
4 8 5 6 7 7 8 8 6 3 2 5 7 7 7 5 3 1 4 9 6 5 4 4 5 6 7 8 10 11 12 13 13 16 17 16 18 18 19 19 18 19 20
3 5 6 6 7 7 6 6 6 6 6 4 3 1 2 1 2 2 3 6 4 3 5 5 6 7 8 9 11 12 13 13 15 15 15 15 18 21 21 21 23 24 26
10 13 8 7 6 5 5 6 6 6 6 6 5 4 2 8 4 4 5 4 4 4 4 5 6 7 8 10 11 13 13 13 14 14 15 16 17 21 22 21 22 25 26
9 11 13 10 6 6 6 7 7 6 6 5 5 4 5 8 3 2 2 3 3 4 5 6 8 9 10 12 14 15 14 15 15 17 18 20 20 20 21 23 24 26 27
12 9 9 8 9 9 8 8 7 7 7 5 5 3 4 5 2 1 2 3 4 5 6 8 9 11 13 15 17 17 18 17 18 18 19 21 23 25 25 25 26 27 28
13 12 11 11 11 11 12 8 8 8 7 7 7 4 2 4 2 1 1 2 4 5 7 8 10 11 15 17 18 19 19 19 21 23 24 25 25 27 30 32 31 28 28
15 15 15 14 14 12 11 11 10 10 9 7 7 6 6 4 3 4 1 3 5 5 7 9 11 15 16 18 18 19 20 21 22 24 24 23 24 25 27 29 29 30 31
18 18 19 19 18 16 14 14 12 9 9 9 8 8 7 6 5 4 4 5 5 8 10 12 12 14 16 18 19 21 22 22 23 23 25 23 26 27 29 30 29 30 31
22 25 23 21 20 18 17 15 14 13 11 10 10 9 8 6 5 5 5 6 6 7 8 12 14 17 18 19 20 22 24 23 23 22 24 24 25 27 28 30 30 30 31
Wind_Direction
188 198 189 201 205 214 215 216 218 218 204 206 202 206 208 217 221 230 199 214 227 237 232 245 265 265 264 267 283 279 283 289 291 290 301 304 306 321 313 326 332 334 329
192 199 195 193 202 210 217 226 222 218 205 203 201 208 197 211 222 223 227 223 234 234 239 243 253 262 277 288 276 280 281 291 290 291 296 306 309 309 314 323 331 336 329
200 203 203 205 206 207 216 220 220 232 219 214 208 204 207 212 217 232 227 230 232 237 239 246 250 257 265 261 259 262 276 284 298 296 303 305 304 310 310 319 322 327 328
197 205 208 209 210 213 218 224 218 219 223 221 218 219 232 227 236 226 236 224 236 235 237 242 245 248 248 263 268 273 290 292 297 294 295 301 308 309 317 330 329 321 324
222 213 215 208 208 210 213 212 229 226 226 220 227 230 227 236 239 232 217 226 236 239 234 243 251 254 243 242 249 264 260 278 286 289 294 297 301 309 319 315 313 316 318
212 206 208 215 208 208 223 222 214 215 225 228 226 228 226 230 233 230 216 229 242 247 247 256 261 252 264 269 275 269 265 273 278 279 284 286 286 295 296 299 300 307 309
235 234 230 231 233 241 241 225 218 213 215 220 221 223 227 228 227 228 233 232 228 243 243 240 245 271 263 257 277 287 287 290 290 293 291 291 288 290 290 295 297 290 299
206 212 220 234 238 244 231 219 209 206 211 222 219 225 238 237 238 242 246 250 248 250 254 252 255 245 254 260 264 269 276 284 286 286 285 290 292 293 287 288 290 298 302
216 225 231 231 233 233 231 221 206 207 211 214 215 228 252 250 246 241 235 243 241 244 252 254 260 265 268 266 267 276 282 284 276 280 274 276 277 278 283 287 289 289 292
211 190 193 206 200 204 196 213 210 208 217 226 223 231 242 246 244 236 192 158 234 244 277 272 277 283 288 293 291 284 282 271 287 283 290 299 310 299 290 289 286 288 287
171 168 161 166 172 179 183 204 201 202 224 226 224 228 229 227 244 236 232 249 234 118 111 41 294 304 303 304 301 297 296 299 303 307 313 313 311 316 302 300 297 296 295
175 163 169 165 142 172 167 158 159 182 189 190 165 120 194 194 195 208 206 204 201 149 201 264 282 305 312 315 314 314 310 313 326 318 322 321 321 319 315 309 319 314 314
162 163 155 153 152 165 173 170 162 156 171 175 175 172 157 179 218 214 223 239 237 253 270 280 288 295 296 301 301 312 319 322 309 307 309 310 314 316 318 323 309 303 313
175 185 192 181 153 140 133 147 157 185 197 203 205 203 226 241 251 248 263 276 281 282 293 295 298 310 320 322 332 323 313 303 301 310 308 308 312 313 314 316 315 314 314
154 161 162 174 156 185 189 177 211 199 187 176 197 210 203 238 274 279 283 285 284 284 287 293 311 289 303 302 304 314 318 314 318 314 316 317 316 315 314 312 309 310 311
161 153 167 186 173 186 197 218 233 219 217 223 235 250 257 271 283 287 289 297 310 330 10 353 322 287 335 307 314 326 322 320 300 325 329 321 319 317 316 317 320 313 310
158 209 188 178 195 194 200 204 238 227 231 235 240 249 265 271 277 289 300 327 10 62 55 21 18 17 9 350 339 338 332 322 318 313 309 306 309 316 318 315 313 314 314
202 212 185 205 204 200 204 204 212 219 264 251 241 237 241 253 261 296 80 75 54 52 62 41 20 12 358 345 336 330 327 327 331 325 327 329 326 317 315 309 303 306 307
220 221 215 215 208 197 197 197 195 195 181 197 310 337 157 64 62 95 150 87 88 56 31 22 9 358 346 334 326 328 323 326 325 327 326 323 317 317 312 311 309 303 301
200 210 190 220 225 195 202 200 195 188 181 176 185 182 180 45 63 59 49 67 63 50 24 14 348 337 332 321 319 316 322 328 324 323 319 319 313 301 300 307 306 305 305
218 225 195 192 210 201 210 210 206 197 192 186 219 225 148 119 108 100 97 48 42 31 355 345 343 340 334 331 330 329 330 327 327 324 324 319 317 312 309 307 305 302 301
206 219 199 203 207 210 206 210 205 200 197 199 228 224 156 126 165 136 57 30 351 343 334 332 329 327 327 328 327 325 325 325 324 322 319 316 317 317 317 314 309 306 304
207 208 212 207 213 210 208 205 205 198 199 196 193 213 176 193 202 207 335 338 346 338 327 332 329 329 329 328 327 326 326 324 318 319 315 313 316 322 322 317 311 302 298
209 211 214 212 213 216 209 208 209 195 194 205 202 199 204 212 216 251 304 286 324 328 321 318 320 322 326 329 327 323 320 316 313 310 309 309 310 317 321 316 310 305 299
214 218 216 216 215 215 211 210 214 211 204 205 206 207 212 210 214 235 255 288 307 312 320 329 326 322 325 325 324 324 321 317 312 310 306 303 308 315 318 322 324 319 315
224 218 222 225 222 221 213 213 212 214 213 212 213 214 215 220 231 236 253 268 292 303 306 317 317 325 329 330 328 326 322 317 314 310 305 299 306 313 313 320 324 325 326
Height
1583 1586 1589 1591 1593 1594 1596 1596 1598 1598 1600 1602 1603 1605 1607 1609 1611 1611 1611 1613 1614 1616 1616 1617 1618 1618 1619 1620 1620 1619 1619 1618 1616 1614 1612 1611 1608 1607 1605 1603 1600 1597 1596
1581 1583 1586 1589 1591 1593 1594 1596 1596 1596 1598 1600 1601 1603 1605 1607 1608 1609 1610 1613 1612 1614 1614 1615 1616 1617 1617 1617 1617 1617 1617 1615 1614 1612 1610 1608 1607 1606 1603 1601 1599 1597 1594
1577 1581 1583 1586 1588 1590 1592 1594 1595 1596 1596 1597 1600 1600 1602 1604 1606 1607 1608 1610 1611 1612 1612 1613 1614 1614 1614 1614 1614 1613 1613 1613 1611 1610 1608 1607 1605 1604 1602 1599 1597 1595 1593
1573 1577 1579 1582 1585 1588 1589 1591 1593 1595 1596 1597 1598 1600 1602 1603 1604 1604 1606 1607 1608 1609 1610 1610 1611 1611 1611 1611 1611 1611 1610 1610 1610 1608 1606 1605 1603 1601 1599 1597 1596 1594 1591
1572 1573 1576 1579 1580 1582 1585 1588 1590 1592 1594 1595 1597 1599 1601 1602 1602 1602 1603 1604 1606 1607 1608 1607 1608 1608 1608 1608 1608 1609 1606 1607 1607 1606 1604 1602 1601 1597 1597 1596 1594 1591 1589
1569 1571 1574 1576 1577 1579 1581 1584 1586 1588 1591 1593 1594 1596 1598 1598 1598 1598 1601 1603 1604 1605 1605 1605 1605 1604 1603 1604 1604 1603 1603 1602 1602 1602 1602 1600 1598 1597 1596 1593 1590 1588 1585
1564 1568 1571 1573 1574 1575 1577 1580 1583 1585 1587 1588 1590 1591 1591 1590 1592 1595 1596 1599 1600 1601 1601 1601 1602 1603 1601 1602 1601 1600 1599 1599 1599 1598 1596 1595 1593 1592 1591 1588 1587 1584 1582
1563 1567 1569 1570 1570 1572 1575 1577 1580 1582 1584 1586 1587 1587 1585 1588 1590 1592 1593 1595 1596 1597 1597 1597 1597 1597 1595 1597 1597 1597 1596 1596 1596 1594 1591 1590 1589 1588 1586 1585 1582 1579 1576
1562 1564 1567 1568 1569 1571 1572 1574 1576 1578 1580 1581 1583 1583 1585 1586 1587 1588 1590 1591 1590 1590 1591 1593 1593 1592 1592 1592 1593 1592 1592 1591 1592 1589 1586 1584 1583 1582 1582 1580 1577 1577 1574
1559 1563 1565 1566 1568 1571 1571 1573 1574 1576 1577 1579 1580 1581 1582 1583 1585 1586 1588 1590 1589 1589 1589 1589 1589 1589 1589 1589 1588 1587 1587 1586 1584 1583 1582 1581 1578 1576 1575 1574 1573 1570 1569
1557 1561 1564 1567 1567 1569 1570 1571 1572 1575 1576 1577 1578 1579 1580 1581 1583 1584 1585 1587 1587 1588 1589 1590 1586 1587 1587 1587 1586 1585 1584 1583 1581 1579 1579 1577 1576 1574 1573 1571 1569 1567 1566
1556 1559 1562 1564 1568 1568 1570 1572 1572 1574 1575 1578 1579 1579 1579 1580 1581 1582 1584 1586 1585 1585 1585 1585 1584 1586 1585 1585 1584 1584 1583 1582 1580 1579 1578 1576 1575 1573 1572 1569 1566 1564 1563
1557 1558 1562 1565 1566 1567 1570 1571 1573 1574 1579 1581 1582 1583 1582 1579 1580 1581 1583 1583 1583 1583 1584 1583 1583 1584 1584 1584 1582 1582 1580 1581 1581 1579 1577 1574 1573 1571 1568 1567 1565 1562 1560
1558 1560 1562 1563 1565 1569 1572 1572 1575 1578 1579 1581 1581 1583 1582 1577 1578 1579 1581 1579 1580 1580 1580 1580 1580 1581 1581 1582 1580 1581 1579 1580 1578 1577 1575 1571 1570 1568 1566 1565 1562 1559 1557
1561 1563 1563 1563 1565 1565 1567 1569 1570 1573 1575 1577 1578 1580 1578 1578 1575 1576 1576 1576 1576 1576 1577 1577 1579 1578 1580 1582 1579 1578 1577 1574 1574 1571 1570 1569 1567 1565 1563 1561 1558 1556 1554
1562 1562 1564 1566 1566 1566 1565 1566 1568 1570 1570 1572 1573 1573 1573 1572 1571 1572 1572 1572 1573 1572 1574 1576 1573 1573 1573 1575 1575 1573 1572 1571 1568 1567 1567 1566 1563 1561 1560 1557 1555 1553 1551
1562 1563 1563 1565 1567 1568 1568 1568 1566 1567 1568 1569 1569 1570 1569 1570 1570 1569 1570 1571 1571 1573 1576 1575 1573 1572 1572 1573 1575 1570 1568 1565 1563 1561 1561 1558 1557 1557 1556 1553 1551 1549 1546
1561 1562 1564 1566 1567 1567 1567 1568 1569 1568 1567 1566 1567 1568 1568 1568 1568 1567 1569 1570 1573 1574 1573 1573 1573 1571 1571 1570 1571 1569 1565 1562 1561 1559 1558 1557 1554 1550 1548 1547 1544 1544 1540
1558 1564 1565 1565 1565 1565 1565 1566 1567 1568 1568 1569 1567 1566 1566 1566 1567 1567 1569 1570 1571 1572 1570 1569 1567 1567 1567 1566 1565 1564 1562 1561 1557 1556 1555 1554 1551 1546 1543 1540 1538 1537 1533
1559 1560 1560 1563 1562 1563 1563 1565 1566 1566 1567 1568 1569 1568 1568 1566 1568 1568 1567 1568 1569 1568 1567 1567 1565 1564 1563 1563 1561 1560 1558 1556 1554 1552 1550 1549 1546 1541 1538 1537 1535 1531 1528
1557 1554 1556 1559 1561 1561 1564 1565 1565 1566 1566 1566 1565 1563 1564 1565 1567 1568 1569 1567 1565 1565 1564 1562 1560 1560 1560 1558 1557 1556 1553 1549 1548 1545 1543 1540 1538 1535 1533 1530 1527 1524 1521
1555 1555 1553 1558 1558 1560 1562 1564 1564 1564 1564 1564 1564 1562 1563 1565 1568 1568 1565 1565 1563 1562 1561 1560 1559 1558 1557 1555 1553 1551 1549 1545 1542 1540 1538 1535 1531 1529 1526 1523 1520 1517 1514
1549 1551 1552 1555 1557 1557 1559 1561 1561 1561 1562 1563 1564 1564 1565 1566 1566 1564 1562 1562 1561 1561 1560 1558 1556 1554 1552 1551 1549 1546 1544 1541 1538 1535 1532 1530 1527 1525 1522 1517 1514 1511 1510
1545 1547 1549 1550 1553 1554 1556 1557 1559 1558 1559 1561 1561 1562 1563 1563 1564 1563 1561 1560 1558 1557 1557 1555 1553 1551 1549 1546 1544 1542 1539 1536 1534 1531 1527 1525 1523 1520 1517 1513 1509 1504 1500
1540 1542 1544 1546 1547 1549 1551 1553 1554 1554 1555 1557 1558 1560 1561 1560 1561 1560 1559 1558 1557 1555 1552 1550 1549 1547 1544 1542 1540 1537 1534 1531 1527 1524 1521 1519 1517 1514 1511 1506 1500 1495 1492
1534 1535 1538 1541 1543 1544 1546 1547 1549 1551 1553 1553 1556 1557 1557 1557 1557 1558 1557 1556 1554 1552 1549 1548 1545 1541 1539 1537 1535 1531 1528 1525 1522 1519 1515 1513 1510 1508 1504 1499 1494 1489 1484